QPF
0.02 0.01 0.01 0.01 0.00 0.00 0.00 0.00 0.00 0.00 0.00 0.00 0.00 0.00 0.00 0.00 0.00 0.00 0.00 0.00 0.00 0.01 0.01 0.00 0.00 0.00 0.00 0.00 0.00 0.00 0.00 0.00 0.00 0.00 0.00 0.00 0.00 0.00 0.00 0.00 0.00 0.00 0.00
0.02 0.01 0.01 0.00 0.00 0.00 0.00 0.00 0.00 0.00 0.00 0.00 0.00 0.00 0.00 0.00 0.00 0.00 0.00 0.00 0.00 0.00 0.00 0.00 0.00 0.00 0.00 0.00 0.00 0.00 0.00 0.00 0.00 0.00 0.00 0.00 0.00 0.00 0.00 0.00 0.00 0.00 0.00
0.02 0.01 0.01 0.00 0.00 0.00 0.00 0.00 0.00 0.00 0.00 0.00 0.00 0.00 0.00 0.00 0.00 0.00 0.00 0.00 0.00 0.00 0.00 0.00 0.00 0.00 0.00 0.00 0.00 0.00 0.00 0.00 0.00 0.00 0.00 0.00 0.00 0.00 0.00 0.00 0.00 0.01 0.01
0.03 0.02 0.01 0.00 0.00 0.00 0.00 0.00 0.00 0.00 0.00 0.00 0.00 0.00 0.00 0.00 0.00 0.00 0.00 0.00 0.00 0.00 0.00 0.00 0.00 0.00 0.00 0.00 0.00 0.00 0.00 0.00 0.00 0.00 0.00 0.00 0.00 0.00 0.00 0.00 0.00 0.01 0.01
0.04 0.02 0.01 0.00 0.00 0.00 0.00 0.00 0.00 0.00 0.00 0.00 0.00 0.00 0.00 0.00 0.00 0.00 0.00 0.00 0.00 0.00 0.00 0.00 0.00 0.00 0.00 0.00 0.00 0.00 0.00 0.00 0.00 0.00 0.00 0.00 0.00 0.00 0.00 0.01 0.01 0.01 0.01
0.05 0.03 0.01 0.01 0.00 0.00 0.00 0.00 0.00 0.00 0.00 0.00 0.00 0.00 0.00 0.00 0.00 0.00 0.00 0.00 0.00 0.00 0.00 0.00 0.00 0.00 0.00 0.00 0.00 0.00 0.00 0.00 0.00 0.00 0.00 0.00 0.00 0.00 0.01 0.01 0.01 0.01 0.01
0.06 0.03 0.02 0.01 0.00 0.00 0.00 0.00 0.00 0.00 0.00 0.00 0.00 0.00 0.00 0.00 0.00 0.00 0.00 0.00 0.00 0.00 0.00 0.00 0.00 0.00 0.00 0.00 0.00 0.00 0.00 0.00 0.00 0.00 0.00 0.00 0.00 0.01 0.01 0.01 0.01 0.01 0.01
0.09 0.04 0.02 0.01 0.00 0.00 0.00 0.00 0.00 0.00 0.00 0.00 0.00 0.00 0.00 0.00 0.00 0.00 0.00 0.00 0.00 0.00 0.00 0.00 0.00 0.00 0.00 0.00 0.00 0.00 0.00 0.00 0.00 0.00 0.00 0.00 0.00 0.00 0.01 0.01 0.01 0.01 0.01
0.11 0.07 0.03 0.01 0.01 0.00 0.00 0.00 0.00 0.00 0.00 0.00 0.00 0.00 0.00 0.00 0.00 0.00 0.00 0.00 0.00 0.00 0.00 0.00 0.00 0.00 0.00 0.00 0.00 0.00 0.00 0.00 0.00 0.00 0.00 0.00 0.00 0.01 0.01 0.01 0.01 0.01 0.01
0.13 0.10 0.06 0.03 0.01 0.00 0.00 0.00 0.00 0.00 0.00 0.00 0.00 0.00 0.00 0.00 0.00 0.00 0.00 0.00 0.00 0.00 0.00 0.00 0.00 0.00 0.00 0.00 0.00 0.00 0.00 0.00 0.00 0.00 0.00 0.00 0.00 0.01 0.01 0.01 0.01 0.01 0.01
0.15 0.11 0.07 0.05 0.02 0.01 0.00 0.00 0.00 0.00 0.00 0.00 0.00 0.00 0.00 0.00 0.00 0.00 0.00 0.00 0.00 0.00 0.00 0.00 0.00 0.00 0.00 0.00 0.00 0.00 0.00 0.00 0.00 0.00 0.00 0.00 0.00 0.00 0.00 0.00 0.00 0.00 0.00
0.17 0.13 0.07 0.05 0.03 0.01 0.00 0.00 0.00 0.00 0.00 0.00 0.00 0.00 0.00 0.00 0.00 0.00 0.00 0.00 0.00 0.00 0.00 0.00 0.00 0.00 0.00 0.00 0.00 0.00 0.00 0.00 0.00 0.00 0.00 0.00 0.00 0.00 0.00 0.00 0.00 0.00 0.00
0.16 0.14 0.09 0.04 0.03 0.02 0.01 0.00 0.00 0.00 0.00 0.00 0.00 0.00 0.00 0.00 0.00 0.00 0.00 0.00 0.00 0.00 0.00 0.00 0.00 0.00 0.00 0.00 0.00 0.00 0.00 0.00 0.00 0.00 0.00 0.00 0.00 0.00 0.00 0.00 0.00 0.00 0.00
0.14 0.12 0.10 0.06 0.03 0.02 0.01 0.00 0.00 0.00 0.00 0.00 0.00 0.00 0.00 0.00 0.00 0.00 0.00 0.00 0.00 0.00 0.00 0.00 0.00 0.00 0.00 0.00 0.00 0.00 0.00 0.00 0.00 0.00 0.00 0.00 0.00 0.00 0.00 0.00 0.00 0.00 0.00
0.18 0.14 0.11 0.07 0.05 0.03 0.02 0.01 0.00 0.00 0.00 0.00 0.00 0.00 0.00 0.00 0.00 0.00 0.00 0.00 0.00 0.01 0.00 0.00 0.00 0.00 0.00 0.00 0.00 0.00 0.00 0.00 0.00 0.00 0.00 0.00 0.00 0.00 0.00 0.00 0.00 0.00 0.00
0.21 0.18 0.15 0.11 0.06 0.04 0.02 0.01 0.00 0.00 0.00 0.00 0.00 0.00 0.00 0.00 0.00 0.00 0.00 0.00 0.00 0.01 0.00 0.00 0.00 0.00 0.00 0.00 0.00 0.00 0.00 0.00 0.00 0.00 0.00 0.00 0.00 0.00 0.00 0.00 0.00 0.00 0.01
0.23 0.23 0.19 0.14 0.10 0.06 0.04 0.02 0.01 0.00 0.00 0.00 0.00 0.00 0.00 0.00 0.00 0.00 0.00 0.00 0.00 0.00 0.00 0.00 0.00 0.00 0.00 0.00 0.00 0.00 0.00 0.00 0.00 0.00 0.00 0.00 0.00 0.00 0.00 0.00 0.00 0.00 0.00
0.24 0.23 0.23 0.20 0.14 0.09 0.06 0.03 0.01 0.00 0.00 0.00 0.00 0.00 0.00 0.00 0.00 0.00 0.00 0.01 0.01 0.00 0.00 0.00 0.00 0.00 0.00 0.00 0.00 0.00 0.00 0.00 0.00 0.00 0.00 0.00 0.00 0.00 0.00 0.00 0.00 0.00 0.00
0.21 0.22 0.21 0.21 0.19 0.14 0.09 0.06 0.03 0.01 0.00 0.00 0.00 0.00 0.00 0.00 0.00 0.00 0.01 0.01 0.00 0.00 0.00 0.01 0.01 0.00 0.00 0.00 0.00 0.00 0.00 0.00 0.00 0.00 0.00 0.00 0.00 0.00 0.00 0.00 0.00 0.00 0.00
0.15 0.17 0.18 0.17 0.16 0.14 0.11 0.09 0.05 0.02 0.01 0.00 0.00 0.00 0.00 0.00 0.00 0.01 0.00 0.00 0.00 0.00 0.00 0.01 0.01 0.01 0.00 0.00 0.00 0.00 0.00 0.00 0.00 0.00 0.00 0.00 0.00 0.00 0.00 0.00 0.00 0.00 0.00
0.12 0.13 0.13 0.14 0.14 0.12 0.09 0.06 0.05 0.03 0.02 0.01 0.00 0.00 0.00 0.00 0.01 0.00 0.00 0.00 0.00 0.00 0.00 0.01 0.01 0.01 0.01 0.01 0.00 0.00 0.00 0.00 0.00 0.00 0.00 0.00 0.00 0.00 0.00 0.00 0.00 0.00 0.00
0.13 0.12 0.12 0.12 0.12 0.10 0.10 0.07 0.05 0.03 0.02 0.01 0.01 0.00 0.00 0.00 0.00 0.00 0.00 0.00 0.00 0.00 0.00 0.01 0.01 0.01 0.01 0.01 0.00 0.00 0.00 0.00 0.00 0.00 0.00 0.00 0.00 0.00 0.00 0.00 0.00 0.00 0.00
0.11 0.12 0.11 0.10 0.09 0.08 0.07 0.06 0.06 0.04 0.02 0.02 0.01 0.01 0.01 0.00 0.00 0.00 0.00 0.00 0.00 0.01 0.01 0.01 0.01 0.01 0.01 0.00 0.00 0.01 0.01 0.01 0.00 0.00 0.00 0.00 0.00 0.00 0.00 0.00 0.00 0.00 0.00
0.10 0.09 0.09 0.09 0.08 0.06 0.06 0.05 0.06 0.05 0.03 0.02 0.01 0.01 0.01 0.01 0.01 0.01 0.00 0.00 0.00 0.01 0.01 0.01 0.00 0.00 0.00 0.01 0.01 0.01 0.01 0.00 0.00 0.00 0.00 0.00 0.00 0.00 0.00 0.00 0.00 0.00 0.00
0.09 0.09 0.08 0.08 0.08 0.07 0.06 0.06 0.05 0.04 0.04 0.03 0.02 0.02 0.01 0.01 0.01 0.01 0.01 0.01 0.01 0.01 0.01 0.01 0.01 0.01 0.01 0.01 0.01 0.01 0.00 0.00 0.00 0.00 0.00 0.00 0.00 0.00 0.00 0.00 0.00 0.00 0.00
0.06 0.08 0.08 0.07 0.07 0.07 0.07 0.07 0.06 0.04 0.04 0.03 0.02 0.02 0.03 0.02 0.03 0.02 0.01 0.01 0.01 0.01 0.00 0.00 0.01 0.01 0.01 0.01 0.02 0.01 0.00 0.01 0.01 0.00 0.00 0.00 0.00 0.00 0.00 0.00 0.00 0.00 0.00
MSLP
1008.95 1009.73 1010.40 1011.00 1011.55 1012.08 1012.61 1013.14 1013.63 1014.06 1014.41 1014.67 1014.86 1014.99 1015.09 1015.21 1015.38 1015.61 1015.90 1016.23 1016.57 1016.90 1017.18 1017.40 1017.57 1017.69 1017.77 1017.82 1017.87 1017.92 1017.96 1017.99 1018.01 1018.02 1018.02 1018.00 1017.98 1017.95 1017.91 1017.86 1017.80 1017.70 1017.58
1008.37 1009.25 1010.00 1010.66 1011.26 1011.82 1012.37 1012.91 1013.42 1013.90 1014.31 1014.65 1014.90 1015.09 1015.25 1015.39 1015.55 1015.75 1016.00 1016.28 1016.58 1016.87 1017.14 1017.37 1017.56 1017.69 1017.79 1017.87 1017.92 1017.96 1017.99 1018.01 1018.01 1018.01 1017.99 1017.96 1017.93 1017.88 1017.82 1017.75 1017.65 1017.53 1017.38
1007.69 1008.68 1009.55 1010.30 1010.97 1011.58 1012.16 1012.73 1013.27 1013.79 1014.25 1014.64 1014.96 1015.21 1015.40 1015.56 1015.71 1015.87 1016.07 1016.29 1016.54 1016.80 1017.05 1017.27 1017.47 1017.63 1017.76 1017.85 1017.91 1017.95 1017.97 1017.98 1017.97 1017.94 1017.91 1017.86 1017.80 1017.74 1017.65 1017.55 1017.42 1017.27 1017.10
1006.93 1008.05 1009.05 1009.92 1010.68 1011.37 1012.00 1012.59 1013.16 1013.70 1014.19 1014.63 1014.99 1015.28 1015.51 1015.68 1015.82 1015.96 1016.10 1016.27 1016.47 1016.68 1016.90 1017.12 1017.32 1017.50 1017.64 1017.75 1017.83 1017.87 1017.88 1017.87 1017.84 1017.80 1017.74 1017.67 1017.59 1017.50 1017.38 1017.25 1017.09 1016.91 1016.71
1006.12 1007.36 1008.49 1009.50 1010.37 1011.14 1011.83 1012.45 1013.04 1013.59 1014.10 1014.57 1014.97 1015.29 1015.55 1015.74 1015.88 1015.99 1016.10 1016.22 1016.37 1016.53 1016.72 1016.92 1017.12 1017.29 1017.44 1017.56 1017.64 1017.68 1017.68 1017.66 1017.61 1017.55 1017.47 1017.38 1017.28 1017.16 1017.02 1016.85 1016.67 1016.46 1016.23
1005.26 1006.62 1007.88 1009.02 1010.01 1010.86 1011.60 1012.26 1012.86 1013.42 1013.94 1014.42 1014.85 1015.21 1015.50 1015.71 1015.87 1015.98 1016.07 1016.16 1016.26 1016.38 1016.53 1016.70 1016.87 1017.03 1017.16 1017.27 1017.33 1017.36 1017.36 1017.32 1017.26 1017.18 1017.09 1016.99 1016.87 1016.72 1016.56 1016.37 1016.16 1015.92 1015.66
1004.38 1005.82 1007.20 1008.46 1009.56 1010.50 1011.30 1011.98 1012.60 1013.16 1013.69 1014.18 1014.63 1015.03 1015.36 1015.61 1015.80 1015.92 1016.01 1016.08 1016.15 1016.24 1016.34 1016.46 1016.59 1016.71 1016.82 1016.90 1016.94 1016.95 1016.93 1016.88 1016.81 1016.73 1016.63 1016.52 1016.39 1016.24 1016.05 1015.84 1015.60 1015.33 1015.04
1003.51 1005.02 1006.48 1007.83 1009.02 1010.03 1010.88 1011.61 1012.23 1012.80 1013.34 1013.85 1014.33 1014.76 1015.14 1015.44 1015.67 1015.83 1015.94 1016.01 1016.06 1016.11 1016.17 1016.24 1016.31 1016.38 1016.44 1016.47 1016.48 1016.47 1016.43 1016.38 1016.31 1016.23 1016.14 1016.03 1015.90 1015.74 1015.54 1015.31 1015.04 1014.73 1014.41
1002.70 1004.24 1005.77 1007.18 1008.43 1009.50 1010.39 1011.14 1011.79 1012.37 1012.91 1013.45 1013.96 1014.44 1014.86 1015.23 1015.51 1015.71 1015.85 1015.93 1015.97 1015.99 1016.01 1016.02 1016.04 1016.05 1016.05 1016.04 1016.02 1015.99 1015.94 1015.89 1015.83 1015.76 1015.68 1015.58 1015.45 1015.29 1015.08 1014.82 1014.52 1014.19 1013.83
1002.01 1003.57 1005.11 1006.55 1007.84 1008.94 1009.86 1010.63 1011.29 1011.89 1012.46 1013.01 1013.56 1014.08 1014.56 1014.98 1015.32 1015.56 1015.73 1015.82 1015.86 1015.87 1015.85 1015.81 1015.78 1015.73 1015.69 1015.65 1015.60 1015.55 1015.51 1015.46 1015.42 1015.38 1015.32 1015.23 1015.10 1014.93 1014.71 1014.43 1014.10 1013.74 1013.35
1001.50 1003.04 1004.57 1006.01 1007.30 1008.41 1009.34 1010.12 1010.80 1011.41 1012.00 1012.59 1013.17 1013.73 1014.25 1014.71 1015.09 1015.38 1015.57 1015.68 1015.72 1015.71 1015.66 1015.60 1015.53 1015.45 1015.37 1015.31 1015.25 1015.20 1015.17 1015.15 1015.13 1015.11 1015.07 1014.99 1014.87 1014.70 1014.46 1014.16 1013.81 1013.42 1013.00
1001.18 1002.68 1004.17 1005.58 1006.84 1007.94 1008.86 1009.65 1010.34 1010.97 1011.58 1012.19 1012.79 1013.38 1013.94 1014.43 1014.84 1015.15 1015.36 1015.48 1015.52 1015.50 1015.45 1015.37 1015.28 1015.18 1015.10 1015.03 1014.98 1014.95 1014.94 1014.94 1014.96 1014.96 1014.94 1014.87 1014.76 1014.57 1014.32 1014.01 1013.64 1013.23 1012.80
1001.01 1002.47 1003.91 1005.27 1006.48 1007.54 1008.45 1009.23 1009.92 1010.57 1011.19 1011.82 1012.44 1013.05 1013.62 1014.12 1014.54 1014.86 1015.08 1015.20 1015.25 1015.24 1015.18 1015.11 1015.02 1014.94 1014.87 1014.82 1014.79 1014.78 1014.80 1014.83 1014.87 1014.89 1014.89 1014.83 1014.72 1014.53 1014.27 1013.95 1013.58 1013.17 1012.74
1000.95 1002.35 1003.74 1005.03 1006.19 1007.21 1008.09 1008.86 1009.55 1010.21 1010.84 1011.48 1012.11 1012.72 1013.28 1013.78 1014.20 1014.52 1014.74 1014.87 1014.92 1014.92 1014.88 1014.83 1014.76 1014.71 1014.66 1014.64 1014.64 1014.67 1014.72 1014.77 1014.83 1014.87 1014.87 1014.82 1014.71 1014.53 1014.27 1013.96 1013.59 1013.20 1012.80
1000.91 1002.27 1003.59 1004.82 1005.93 1006.90 1007.75 1008.50 1009.20 1009.85 1010.50 1011.14 1011.78 1012.38 1012.94 1013.43 1013.84 1014.15 1014.37 1014.50 1014.57 1014.59 1014.58 1014.55 1014.52 1014.50 1014.49 1014.51 1014.54 1014.59 1014.66 1014.73 1014.79 1014.84 1014.85 1014.80 1014.69 1014.52 1014.28 1013.98 1013.65 1013.30 1012.93
1000.81 1002.13 1003.40 1004.58 1005.64 1006.57 1007.40 1008.14 1008.83 1009.50 1010.15 1010.80 1011.44 1012.04 1012.59 1013.07 1013.47 1013.78 1014.00 1014.15 1014.24 1014.29 1014.31 1014.32 1014.33 1014.35 1014.37 1014.41 1014.47 1014.53 1014.61 1014.68 1014.74 1014.78 1014.79 1014.74 1014.64 1014.48 1014.27 1014.01 1013.72 1013.41 1013.10
1000.61 1001.90 1003.14 1004.27 1005.30 1006.20 1007.01 1007.75 1008.45 1009.12 1009.78 1010.44 1011.09 1011.69 1012.25 1012.73 1013.14 1013.46 1013.70 1013.87 1013.99 1014.08 1014.14 1014.19 1014.24 1014.29 1014.34 1014.40 1014.46 1014.52 1014.58 1014.64 1014.69 1014.71 1014.71 1014.66 1014.57 1014.43 1014.25 1014.03 1013.78 1013.52 1013.25
1000.33 1001.60 1002.80 1003.91 1004.91 1005.80 1006.60 1007.34 1008.04 1008.73 1009.41 1010.08 1010.73 1011.36 1011.93 1012.43 1012.86 1013.21 1013.49 1013.70 1013.87 1014.01 1014.12 1014.21 1014.29 1014.37 1014.43 1014.50 1014.55 1014.60 1014.64 1014.67 1014.69 1014.69 1014.66 1014.61 1014.52 1014.39 1014.23 1014.04 1013.83 1013.60 1013.36
1000.02 1001.26 1002.44 1003.53 1004.51 1005.39 1006.19 1006.93 1007.64 1008.34 1009.03 1009.72 1010.40 1011.04 1011.65 1012.19 1012.66 1013.06 1013.40 1013.67 1013.90 1014.10 1014.26 1014.40 1014.52 1014.61 1014.69 1014.75 1014.78 1014.81 1014.82 1014.82 1014.80 1014.77 1014.72 1014.65 1014.55 1014.42 1014.26 1014.08 1013.87 1013.65 1013.40
999.75 1000.95 1002.11 1003.18 1004.15 1005.03 1005.83 1006.57 1007.28 1007.99 1008.69 1009.40 1010.10 1010.78 1011.42 1012.01 1012.55 1013.02 1013.43 1013.78 1014.09 1014.35 1014.57 1014.76 1014.91 1015.03 1015.12 1015.17 1015.20 1015.20 1015.18 1015.14 1015.09 1015.03 1014.94 1014.84 1014.71 1014.56 1014.38 1014.16 1013.92 1013.66 1013.37
999.58 1000.74 1001.87 1002.92 1003.88 1004.75 1005.54 1006.28 1007.00 1007.70 1008.41 1009.13 1009.85 1010.57 1011.26 1011.92 1012.52 1013.07 1013.57 1014.01 1014.40 1014.73 1015.02 1015.27 1015.46 1015.61 1015.71 1015.77 1015.79 1015.78 1015.73 1015.67 1015.59 1015.48 1015.36 1015.22 1015.04 1014.84 1014.59 1014.31 1014.00 1013.65 1013.28
999.55 1000.66 1001.75 1002.78 1003.73 1004.59 1005.37 1006.10 1006.81 1007.50 1008.22 1008.94 1009.69 1010.43 1011.17 1011.89 1012.57 1013.21 1013.79 1014.32 1014.79 1015.21 1015.57 1015.88 1016.12 1016.31 1016.44 1016.51 1016.54 1016.52 1016.47 1016.39 1016.28 1016.14 1015.97 1015.77 1015.53 1015.24 1014.91 1014.53 1014.11 1013.65 1013.16
999.65 1000.71 1001.76 1002.76 1003.68 1004.53 1005.30 1006.02 1006.72 1007.41 1008.12 1008.85 1009.61 1010.39 1011.17 1011.95 1012.70 1013.42 1014.08 1014.69 1015.25 1015.74 1016.17 1016.54 1016.83 1017.06 1017.23 1017.33 1017.38 1017.38 1017.32 1017.23 1017.10 1016.93 1016.72 1016.45 1016.13 1015.75 1015.31 1014.81 1014.25 1013.66 1013.04
999.83 1000.82 1001.83 1002.80 1003.71 1004.55 1005.32 1006.03 1006.72 1007.41 1008.12 1008.86 1009.64 1010.45 1011.27 1012.10 1012.92 1013.70 1014.43 1015.12 1015.74 1016.30 1016.79 1017.20 1017.55 1017.82 1018.03 1018.17 1018.24 1018.26 1018.22 1018.12 1017.98 1017.77 1017.51 1017.18 1016.78 1016.30 1015.74 1015.12 1014.43 1013.70 1012.95
999.99 1000.93 1001.90 1002.86 1003.76 1004.60 1005.37 1006.10 1006.80 1007.50 1008.23 1008.99 1009.79 1010.63 1011.50 1012.37 1013.23 1014.07 1014.86 1015.59 1016.27 1016.87 1017.40 1017.86 1018.24 1018.54 1018.78 1018.95 1019.04 1019.08 1019.05 1018.95 1018.79 1018.56 1018.25 1017.86 1017.38 1016.81 1016.16 1015.42 1014.63 1013.80 1012.94
1000.07 1000.97 1001.92 1002.87 1003.78 1004.63 1005.44 1006.19 1006.93 1007.67 1008.43 1009.23 1010.07 1010.95 1011.85 1012.77 1013.67 1014.55 1015.37 1016.14 1016.84 1017.46 1018.01 1018.49 1018.88 1019.20 1019.45 1019.63 1019.74 1019.78 1019.75 1019.65 1019.47 1019.20 1018.85 1018.41 1017.87 1017.23 1016.50 1015.70 1014.83 1013.93 1013.01
Thickness
5710 5708 5707 5705 5705 5704 5702 5701 5701 5700 5699 5698 5697 5697 5696 5694 5691 5688 5685 5683 5681 5679 5677 5674 5671 5668 5665 5662 5659 5656 5652 5649 5645 5641 5637 5634 5630 5626 5622 5618 5614 5610 5605
5707 5704 5703 5701 5701 5700 5699 5698 5697 5696 5695 5694 5693 5693 5691 5689 5687 5684 5681 5679 5677 5675 5672 5670 5667 5665 5661 5658 5655 5651 5648 5644 5640 5636 5632 5628 5624 5620 5616 5612 5607 5603 5599
5702 5701 5699 5697 5697 5696 5695 5693 5693 5692 5690 5689 5688 5688 5686 5685 5683 5680 5678 5675 5673 5671 5668 5666 5663 5660 5657 5654 5651 5647 5643 5639 5635 5631 5627 5623 5618 5614 5610 5606 5601 5597 5592
5698 5696 5695 5693 5692 5691 5690 5689 5688 5686 5684 5683 5682 5682 5681 5680 5679 5677 5674 5672 5669 5667 5664 5661 5659 5656 5653 5650 5646 5643 5639 5635 5631 5626 5622 5618 5613 5609 5605 5600 5595 5591 5586
5693 5692 5691 5689 5688 5686 5685 5684 5683 5681 5678 5677 5676 5675 5675 5674 5674 5673 5671 5668 5666 5663 5660 5657 5654 5651 5648 5645 5642 5638 5634 5630 5626 5622 5617 5613 5608 5604 5599 5594 5590 5585 5580
5689 5687 5686 5684 5683 5681 5679 5679 5677 5676 5674 5672 5672 5669 5669 5668 5668 5667 5666 5664 5662 5659 5656 5653 5650 5647 5644 5641 5637 5634 5630 5626 5621 5617 5612 5608 5603 5599 5594 5589 5584 5579 5574
5685 5685 5683 5681 5679 5677 5676 5674 5672 5670 5668 5667 5664 5660 5661 5662 5662 5662 5661 5659 5657 5655 5652 5649 5646 5643 5640 5636 5633 5629 5625 5621 5617 5612 5608 5603 5598 5593 5588 5583 5578 5573 5568
5680 5681 5679 5678 5675 5673 5670 5670 5668 5665 5664 5663 5660 5654 5651 5652 5655 5658 5656 5654 5653 5651 5648 5645 5643 5640 5636 5632 5628 5624 5620 5616 5612 5607 5603 5598 5593 5588 5583 5577 5572 5567 5562
5675 5676 5675 5674 5671 5670 5667 5666 5665 5664 5660 5659 5659 5655 5649 5647 5648 5650 5651 5650 5648 5646 5644 5641 5639 5636 5632 5629 5624 5620 5615 5611 5607 5602 5598 5593 5588 5583 5577 5572 5567 5561 5555
5670 5671 5671 5669 5667 5666 5664 5663 5662 5661 5658 5655 5654 5655 5654 5653 5647 5642 5643 5644 5643 5641 5639 5638 5635 5632 5629 5625 5620 5616 5611 5606 5601 5597 5592 5587 5583 5577 5572 5567 5561 5555 5549
5663 5665 5665 5663 5662 5662 5661 5659 5658 5657 5655 5653 5652 5650 5649 5649 5648 5641 5637 5636 5636 5637 5636 5634 5631 5628 5625 5620 5616 5611 5606 5601 5596 5591 5586 5581 5576 5571 5566 5560 5554 5548 5542
5657 5659 5660 5659 5658 5659 5658 5656 5655 5653 5652 5650 5649 5648 5646 5644 5642 5640 5635 5632 5631 5631 5631 5629 5626 5624 5620 5616 5611 5606 5601 5595 5590 5585 5580 5575 5570 5564 5559 5553 5547 5541 5535
5652 5655 5656 5656 5655 5655 5654 5653 5652 5650 5649 5647 5646 5644 5643 5642 5641 5639 5634 5629 5627 5626 5625 5623 5622 5619 5616 5611 5606 5600 5595 5590 5585 5580 5574 5569 5563 5558 5552 5546 5540 5533 5527
5650 5651 5652 5652 5652 5651 5650 5649 5648 5647 5646 5644 5643 5641 5639 5638 5637 5636 5632 5626 5621 5619 5618 5617 5616 5615 5611 5606 5600 5595 5590 5584 5579 5574 5568 5563 5557 5551 5545 5538 5532 5525 5518
5644 5647 5648 5648 5647 5647 5646 5645 5645 5643 5642 5641 5639 5637 5635 5634 5633 5631 5629 5625 5618 5613 5612 5612 5610 5609 5605 5600 5595 5589 5584 5579 5573 5568 5562 5556 5551 5544 5538 5531 5524 5517 5509
5641 5643 5644 5644 5643 5643 5642 5641 5641 5640 5638 5637 5635 5633 5631 5630 5628 5626 5624 5621 5617 5612 5608 5608 5605 5603 5599 5594 5589 5583 5578 5573 5567 5561 5556 5550 5544 5537 5531 5523 5516 5509 5501
5637 5639 5640 5640 5639 5639 5639 5637 5637 5636 5635 5633 5632 5630 5628 5626 5624 5622 5619 5616 5612 5608 5604 5602 5600 5597 5592 5587 5582 5577 5572 5566 5560 5555 5549 5543 5537 5530 5523 5516 5508 5500 5492
5633 5636 5637 5636 5636 5635 5635 5635 5634 5633 5632 5631 5629 5627 5625 5623 5620 5618 5614 5611 5608 5605 5601 5596 5593 5589 5584 5580 5575 5569 5565 5559 5554 5548 5543 5536 5530 5523 5516 5508 5500 5491 5482
5628 5631 5633 5634 5633 5632 5632 5632 5631 5631 5630 5629 5627 5624 5622 5619 5616 5614 5611 5607 5604 5600 5597 5592 5587 5582 5577 5572 5567 5562 5557 5552 5546 5541 5535 5529 5523 5515 5508 5500 5491 5482 5473
5622 5625 5628 5629 5629 5629 5629 5628 5628 5627 5626 5625 5624 5622 5619 5617 5614 5610 5607 5603 5599 5595 5590 5586 5580 5574 5569 5565 5559 5554 5548 5543 5539 5533 5527 5521 5514 5507 5500 5491 5483 5474 5465
5617 5619 5622 5623 5624 5624 5625 5625 5624 5623 5623 5621 5620 5618 5616 5614 5611 5607 5604 5599 5594 5589 5584 5579 5573 5568 5562 5556 5551 5547 5541 5536 5531 5525 5519 5513 5507 5500 5491 5483 5474 5465 5456
5610 5614 5616 5618 5618 5620 5620 5620 5620 5619 5619 5617 5615 5613 5610 5607 5604 5601 5598 5594 5590 5585 5579 5574 5568 5562 5557 5551 5546 5540 5532 5526 5521 5518 5510 5504 5498 5490 5482 5474 5465 5457 5448
5602 5608 5611 5613 5614 5615 5615 5614 5614 5614 5614 5613 5611 5608 5605 5602 5599 5594 5590 5587 5583 5579 5576 5571 5563 5558 5551 5546 5539 5532 5525 5518 5513 5508 5501 5494 5488 5480 5473 5465 5456 5448 5439
5594 5601 5605 5607 5609 5609 5608 5608 5607 5608 5608 5608 5606 5604 5601 5597 5593 5589 5583 5578 5573 5570 5567 5563 5557 5551 5545 5539 5534 5527 5519 5511 5504 5497 5491 5483 5477 5471 5464 5456 5447 5439 5430
5586 5592 5597 5600 5602 5603 5602 5602 5601 5601 5601 5600 5600 5598 5596 5592 5588 5583 5578 5571 5565 5561 5557 5553 5548 5543 5538 5532 5526 5518 5509 5502 5495 5488 5480 5472 5467 5461 5455 5447 5439 5430 5422
5578 5584 5589 5593 5596 5597 5596 5596 5596 5596 5595 5594 5593 5591 5589 5587 5582 5578 5574 5568 5560 5554 5549 5543 5538 5533 5528 5523 5517 5511 5503 5494 5486 5478 5471 5463 5455 5448 5444 5439 5431 5423 5415